sat.trackr.live / text

‹ back to catalog

STARLINK-32657

NORAD 62475 · 2024-254P

PAYLOAD ACTIVE UNKNOWN

§ Identity

Operator
Country
US
Launch date
2024-12-31
Launch site
AFETR
Launch vehicle
Mass (kg)
RCS (m²)

Purposes: comms

External: N2YO · Heavens-Above · Gunter

§ Orbital elements

Epoch: 2026-09-19T08:32:46.541472Z

Period
94.26 min
Inclination
43.0031°
Eccentricity
0.0002466
Mean motion
15.27609969 rev/d
Perigee alt
481.3 km
Apogee alt
484.7 km
Semi-major
6,861.1 km
B*
4.5006e-4
RAAN
5.9434°
Arg perigee
283.3425°
Mean anomaly
76.7152°
Rev number
9,708

§ Raw data

STARLINK-326571 62475U 24254P   26262.35609423  .00012155  00000+0  45006-3 0  99922 62475  43.0031   5.9434 0002466 283.3425  76.7152 15.27609969 97083

JSON: /api/v1/satellites/62475 · /tle

For live sub-satellite position, see the globe view (requires WebGL).

§ Visibility from observer

Set your observer location to see the next 7 days of passes ≥ 10°. The values pass through the URL so the page stays shareable.

No JS? Fill the form by hand. The geolocation button needs JavaScript.